QPF
0.00 0.00 0.00 0.00 0.00 0.00 0.00 0.00 0.00 0.00 0.00 0.00 0.00 0.00 0.00 0.00 0.00 0.00 0.00 0.00 0.00 0.00 0.00 0.00 0.00 0.00 0.00 0.00 0.00 0.00 0.00 0.00 0.00 0.00 0.00 0.00 0.00 0.00 0.00 0.00 0.01 0.00 0.00 0.01
0.00 0.00 0.00 0.00 0.00 0.00 0.00 0.00 0.00 0.00 0.00 0.00 0.00 0.00 0.00 0.00 0.00 0.00 0.00 0.00 0.00 0.00 0.00 0.00 0.00 0.00 0.00 0.00 0.00 0.00 0.00 0.00 0.00 0.00 0.00 0.00 0.00 0.00 0.00 0.00 0.00 0.00 0.00 0.01
0.00 0.00 0.00 0.00 0.00 0.00 0.00 0.00 0.00 0.00 0.00 0.00 0.00 0.00 0.00 0.00 0.00 0.00 0.00 0.00 0.00 0.00 0.00 0.00 0.00 0.00 0.00 0.00 0.00 0.00 0.00 0.00 0.00 0.00 0.00 0.00 0.00 0.00 0.00 0.00 0.00 0.00 0.00 0.00
0.00 0.00 0.00 0.00 0.00 0.00 0.00 0.00 0.00 0.00 0.00 0.00 0.00 0.00 0.00 0.00 0.00 0.00 0.00 0.00 0.00 0.00 0.00 0.00 0.00 0.00 0.00 0.00 0.00 0.00 0.00 0.00 0.00 0.00 0.00 0.00 0.00 0.00 0.00 0.00 0.00 0.00 0.00 0.00
0.00 0.00 0.00 0.00 0.00 0.00 0.00 0.00 0.00 0.00 0.00 0.00 0.00 0.00 0.00 0.00 0.00 0.00 0.00 0.00 0.00 0.00 0.00 0.00 0.00 0.00 0.00 0.00 0.00 0.00 0.00 0.00 0.00 0.00 0.00 0.00 0.00 0.00 0.00 0.00 0.00 0.00 0.01 0.01
0.00 0.00 0.00 0.00 0.00 0.00 0.00 0.00 0.00 0.00 0.00 0.00 0.00 0.00 0.00 0.00 0.00 0.00 0.00 0.00 0.00 0.00 0.00 0.00 0.00 0.00 0.00 0.00 0.00 0.00 0.00 0.00 0.00 0.00 0.00 0.00 0.00 0.00 0.00 0.00 0.00 0.00 0.00 0.01
0.00 0.00 0.00 0.00 0.00 0.00 0.00 0.00 0.00 0.00 0.00 0.00 0.00 0.00 0.00 0.00 0.00 0.00 0.00 0.00 0.00 0.00 0.00 0.00 0.00 0.00 0.00 0.00 0.00 0.00 0.00 0.00 0.00 0.00 0.00 0.00 0.00 0.00 0.00 0.00 0.00 0.00 0.00 0.00
0.00 0.00 0.00 0.00 0.00 0.00 0.00 0.00 0.00 0.00 0.00 0.00 0.00 0.00 0.00 0.00 0.00 0.00 0.00 0.00 0.00 0.00 0.00 0.00 0.00 0.00 0.00 0.00 0.00 0.00 0.00 0.00 0.00 0.00 0.00 0.00 0.00 0.00 0.00 0.00 0.00 0.00 0.00 0.00
0.00 0.00 0.00 0.00 0.00 0.00 0.00 0.00 0.00 0.00 0.00 0.00 0.00 0.00 0.00 0.00 0.00 0.00 0.00 0.00 0.00 0.00 0.00 0.00 0.00 0.00 0.00 0.00 0.00 0.00 0.00 0.00 0.00 0.00 0.00 0.00 0.00 0.00 0.00 0.00 0.00 0.00 0.00 0.00
0.00 0.00 0.00 0.00 0.00 0.00 0.00 0.00 0.00 0.00 0.00 0.00 0.00 0.00 0.00 0.00 0.00 0.00 0.00 0.00 0.00 0.00 0.00 0.00 0.00 0.00 0.00 0.00 0.00 0.00 0.00 0.00 0.00 0.00 0.00 0.00 0.00 0.00 0.00 0.00 0.00 0.00 0.00 0.00
0.00 0.00 0.00 0.00 0.00 0.00 0.00 0.00 0.00 0.00 0.00 0.00 0.00 0.00 0.00 0.00 0.00 0.00 0.00 0.00 0.00 0.00 0.00 0.00 0.00 0.00 0.00 0.00 0.00 0.00 0.00 0.00 0.00 0.00 0.00 0.00 0.00 0.00 0.00 0.00 0.00 0.00 0.00 0.00
0.00 0.00 0.00 0.00 0.00 0.00 0.00 0.00 0.00 0.00 0.00 0.00 0.00 0.00 0.00 0.00 0.00 0.00 0.00 0.00 0.00 0.00 0.00 0.00 0.00 0.00 0.00 0.00 0.00 0.00 0.00 0.00 0.00 0.00 0.00 0.00 0.00 0.00 0.00 0.00 0.00 0.00 0.00 0.00
0.00 0.00 0.00 0.00 0.00 0.00 0.00 0.00 0.00 0.00 0.00 0.00 0.00 0.00 0.00 0.00 0.00 0.00 0.00 0.00 0.00 0.00 0.00 0.00 0.00 0.00 0.00 0.00 0.00 0.00 0.00 0.00 0.00 0.00 0.00 0.00 0.00 0.00 0.00 0.00 0.00 0.00 0.00 0.00
0.00 0.00 0.00 0.00 0.00 0.00 0.00 0.00 0.00 0.00 0.00 0.00 0.00 0.00 0.00 0.00 0.00 0.00 0.00 0.00 0.00 0.00 0.00 0.00 0.00 0.00 0.00 0.00 0.00 0.00 0.00 0.00 0.00 0.00 0.00 0.00 0.00 0.00 0.00 0.00 0.00 0.00 0.00 0.00
0.00 0.00 0.00 0.00 0.00 0.00 0.00 0.00 0.00 0.00 0.00 0.00 0.00 0.00 0.00 0.00 0.00 0.00 0.00 0.00 0.00 0.00 0.00 0.00 0.00 0.00 0.00 0.00 0.00 0.00 0.00 0.00 0.00 0.00 0.00 0.00 0.00 0.00 0.00 0.00 0.00 0.00 0.00 0.00
0.00 0.00 0.00 0.00 0.00 0.00 0.00 0.00 0.00 0.00 0.00 0.00 0.00 0.00 0.00 0.00 0.00 0.00 0.00 0.00 0.00 0.00 0.00 0.00 0.00 0.00 0.00 0.00 0.00 0.00 0.00 0.00 0.00 0.00 0.00 0.00 0.00 0.00 0.00 0.00 0.00 0.00 0.00 0.00
0.00 0.00 0.00 0.00 0.00 0.00 0.00 0.00 0.00 0.00 0.00 0.00 0.00 0.00 0.00 0.00 0.00 0.00 0.00 0.00 0.00 0.00 0.00 0.00 0.00 0.00 0.00 0.00 0.00 0.00 0.00 0.00 0.00 0.00 0.00 0.00 0.00 0.00 0.00 0.00 0.00 0.00 0.00 0.00
0.00 0.00 0.00 0.00 0.00 0.00 0.00 0.00 0.00 0.00 0.00 0.00 0.00 0.00 0.00 0.00 0.00 0.00 0.00 0.00 0.00 0.00 0.00 0.00 0.00 0.00 0.00 0.00 0.00 0.00 0.00 0.00 0.00 0.00 0.00 0.00 0.00 0.00 0.00 0.00 0.00 0.00 0.00 0.00
0.00 0.00 0.00 0.00 0.00 0.00 0.00 0.00 0.00 0.00 0.00 0.00 0.00 0.00 0.00 0.00 0.00 0.00 0.00 0.00 0.00 0.00 0.00 0.00 0.00 0.00 0.00 0.00 0.00 0.00 0.00 0.00 0.00 0.00 0.00 0.00 0.00 0.00 0.00 0.00 0.00 0.00 0.00 0.00
0.00 0.00 0.00 0.00 0.00 0.00 0.00 0.00 0.00 0.00 0.00 0.00 0.00 0.00 0.00 0.00 0.00 0.00 0.00 0.00 0.00 0.00 0.00 0.00 0.00 0.00 0.00 0.00 0.00 0.00 0.00 0.00 0.00 0.00 0.00 0.00 0.00 0.00 0.00 0.00 0.00 0.00 0.00 0.00
0.00 0.00 0.00 0.00 0.00 0.00 0.00 0.00 0.00 0.00 0.00 0.00 0.00 0.00 0.00 0.00 0.00 0.00 0.00 0.00 0.00 0.00 0.00 0.00 0.00 0.00 0.00 0.00 0.00 0.00 0.00 0.00 0.00 0.00 0.00 0.00 0.00 0.00 0.00 0.00 0.00 0.00 0.00 0.00
0.00 0.00 0.00 0.00 0.00 0.00 0.00 0.00 0.00 0.00 0.00 0.00 0.00 0.00 0.00 0.00 0.00 0.00 0.00 0.00 0.00 0.00 0.00 0.00 0.00 0.00 0.00 0.00 0.00 0.00 0.00 0.00 0.00 0.00 0.00 0.00 0.00 0.00 0.00 0.00 0.00 0.00 0.00 0.00
0.00 0.00 0.00 0.00 0.00 0.00 0.00 0.00 0.00 0.00 0.00 0.00 0.00 0.00 0.00 0.00 0.00 0.00 0.00 0.00 0.00 0.00 0.00 0.00 0.00 0.00 0.00 0.00 0.00 0.00 0.00 0.00 0.00 0.00 0.00 0.00 0.00 0.00 0.00 0.00 0.00 0.00 0.00 0.00
0.00 0.00 0.00 0.00 0.00 0.00 0.00 0.00 0.00 0.00 0.00 0.00 0.00 0.00 0.00 0.00 0.00 0.00 0.00 0.00 0.00 0.00 0.00 0.00 0.00 0.00 0.00 0.00 0.00 0.00 0.00 0.00 0.00 0.00 0.00 0.00 0.00 0.00 0.00 0.00 0.00 0.00 0.00 0.00
0.00 0.00 0.00 0.00 0.00 0.00 0.00 0.00 0.00 0.00 0.00 0.00 0.00 0.00 0.00 0.00 0.00 0.00 0.00 0.00 0.00 0.00 0.00 0.00 0.00 0.00 0.00 0.00 0.00 0.00 0.00 0.00 0.00 0.00 0.00 0.00 0.00 0.00 0.00 0.00 0.00 0.00 0.00 0.00
0.00 0.00 0.00 0.00 0.00 0.00 0.00 0.00 0.00 0.00 0.00 0.00 0.00 0.00 0.00 0.00 0.00 0.00 0.00 0.00 0.00 0.00 0.00 0.00 0.00 0.00 0.00 0.00 0.00 0.00 0.00 0.00 0.00 0.00 0.00 0.00 0.00 0.00 0.00 0.00 0.00 0.00 0.00 0.00
0.00 0.00 0.00 0.00 0.00 0.00 0.00 0.00 0.00 0.00 0.00 0.00 0.00 0.00 0.00 0.00 0.00 0.00 0.00 0.00 0.00 0.00 0.00 0.00 0.00 0.00 0.00 0.00 0.00 0.00 0.00 0.00 0.00 0.00 0.00 0.00 0.00 0.00 0.00 0.00 0.00 0.00 0.00 0.00
MSLP
1020.69 1021.02 1021.33 1021.60 1021.80 1021.94 1021.97 1021.91 1021.75 1021.50 1021.18 1020.80 1020.41 1020.03 1019.67 1019.35 1019.10 1018.89 1018.74 1018.63 1018.55 1018.49 1018.43 1018.37 1018.30 1018.21 1018.11 1017.99 1017.86 1017.70 1017.51 1017.30 1017.07 1016.81 1016.52 1016.21 1015.87 1015.51 1015.13 1014.74 1014.34 1013.93 1013.53 1013.13
1020.76 1021.00 1021.17 1021.26 1021.26 1021.19 1021.05 1020.85 1020.60 1020.32 1020.04 1019.75 1019.48 1019.23 1019.00 1018.80 1018.63 1018.48 1018.35 1018.25 1018.17 1018.11 1018.08 1018.07 1018.07 1018.08 1018.08 1018.06 1018.02 1017.93 1017.79 1017.61 1017.37 1017.09 1016.76 1016.41 1016.03 1015.65 1015.26 1014.86 1014.48 1014.10 1013.73 1013.38
1020.92 1021.05 1021.06 1020.96 1020.77 1020.51 1020.21 1019.89 1019.57 1019.29 1019.04 1018.84 1018.68 1018.55 1018.43 1018.33 1018.22 1018.11 1018.00 1017.90 1017.82 1017.77 1017.75 1017.78 1017.85 1017.94 1018.02 1018.10 1018.13 1018.11 1018.02 1017.85 1017.61 1017.30 1016.95 1016.56 1016.16 1015.75 1015.34 1014.95 1014.58 1014.22 1013.88 1013.55
1021.14 1021.11 1020.96 1020.68 1020.31 1019.88 1019.44 1019.03 1018.68 1018.40 1018.20 1018.08 1018.02 1017.99 1017.98 1017.95 1017.89 1017.81 1017.71 1017.61 1017.52 1017.47 1017.47 1017.53 1017.64 1017.79 1017.95 1018.09 1018.19 1018.21 1018.15 1018.00 1017.77 1017.46 1017.09 1016.69 1016.28 1015.86 1015.46 1015.08 1014.72 1014.38 1014.06 1013.75
1021.30 1021.11 1020.78 1020.33 1019.80 1019.24 1018.70 1018.23 1017.86 1017.61 1017.47 1017.43 1017.46 1017.53 1017.60 1017.63 1017.63 1017.58 1017.49 1017.38 1017.29 1017.24 1017.25 1017.33 1017.46 1017.64 1017.84 1018.02 1018.16 1018.22 1018.19 1018.06 1017.84 1017.55 1017.20 1016.82 1016.43 1016.04 1015.67 1015.32 1014.98 1014.66 1014.35 1014.05
1021.30 1020.94 1020.45 1019.84 1019.18 1018.52 1017.91 1017.41 1017.05 1016.83 1016.76 1016.81 1016.93 1017.09 1017.23 1017.34 1017.38 1017.36 1017.29 1017.20 1017.11 1017.06 1017.07 1017.15 1017.30 1017.49 1017.70 1017.90 1018.05 1018.13 1018.12 1018.02 1017.83 1017.58 1017.28 1016.96 1016.63 1016.30 1015.99 1015.70 1015.40 1015.11 1014.81 1014.51
1021.05 1020.54 1019.90 1019.17 1018.40 1017.68 1017.04 1016.54 1016.20 1016.04 1016.03 1016.16 1016.36 1016.60 1016.82 1016.99 1017.09 1017.12 1017.08 1017.01 1016.94 1016.91 1016.92 1017.00 1017.14 1017.32 1017.52 1017.71 1017.86 1017.94 1017.95 1017.88 1017.75 1017.56 1017.34 1017.10 1016.86 1016.63 1016.41 1016.18 1015.95 1015.70 1015.42 1015.11
1020.54 1019.90 1019.15 1018.33 1017.50 1016.74 1016.09 1015.61 1015.31 1015.21 1015.26 1015.46 1015.73 1016.04 1016.33 1016.56 1016.72 1016.80 1016.82 1016.79 1016.75 1016.74 1016.76 1016.84 1016.97 1017.13 1017.31 1017.47 1017.61 1017.69 1017.71 1017.67 1017.58 1017.47 1017.34 1017.21 1017.08 1016.96 1016.85 1016.71 1016.55 1016.35 1016.09 1015.78
1019.84 1019.11 1018.28 1017.41 1016.56 1015.80 1015.17 1014.71 1014.46 1014.39 1014.50 1014.73 1015.06 1015.41 1015.75 1016.03 1016.25 1016.39 1016.46 1016.49 1016.50 1016.53 1016.57 1016.66 1016.77 1016.91 1017.06 1017.20 1017.30 1017.37 1017.39 1017.38 1017.35 1017.30 1017.26 1017.24 1017.23 1017.22 1017.21 1017.18 1017.10 1016.95 1016.73 1016.44
1019.09 1018.31 1017.46 1016.58 1015.74 1014.99 1014.39 1013.96 1013.73 1013.69 1013.81 1014.06 1014.39 1014.76 1015.11 1015.43 1015.69 1015.88 1016.01 1016.10 1016.17 1016.24 1016.32 1016.42 1016.54 1016.66 1016.78 1016.88 1016.96 1017.01 1017.03 1017.03 1017.04 1017.05 1017.08 1017.15 1017.23 1017.33 1017.41 1017.46 1017.46 1017.38 1017.21 1016.95
1018.46 1017.69 1016.85 1016.00 1015.19 1014.47 1013.90 1013.49 1013.26 1013.20 1013.30 1013.51 1013.81 1014.14 1014.48 1014.79 1015.06 1015.28 1015.46 1015.61 1015.73 1015.86 1015.98 1016.10 1016.23 1016.35 1016.45 1016.53 1016.58 1016.61 1016.62 1016.63 1016.65 1016.70 1016.78 1016.91 1017.06 1017.22 1017.37 1017.49 1017.55 1017.54 1017.42 1017.21
1018.11 1017.38 1016.59 1015.79 1015.03 1014.35 1013.80 1013.39 1013.13 1013.02 1013.05 1013.18 1013.38 1013.63 1013.90 1014.16 1014.40 1014.62 1014.82 1015.00 1015.18 1015.35 1015.51 1015.67 1015.82 1015.95 1016.05 1016.12 1016.16 1016.18 1016.18 1016.19 1016.21 1016.27 1016.38 1016.52 1016.70 1016.89 1017.08 1017.24 1017.35 1017.38 1017.32 1017.18
1018.12 1017.45 1016.73 1015.99 1015.28 1014.64 1014.10 1013.67 1013.36 1013.16 1013.08 1013.08 1013.15 1013.27 1013.41 1013.58 1013.74 1013.92 1014.10 1014.29 1014.49 1014.70 1014.90 1015.10 1015.28 1015.43 1015.55 1015.63 1015.67 1015.69 1015.70 1015.71 1015.73 1015.79 1015.89 1016.03 1016.20 1016.39 1016.58 1016.75 1016.88 1016.95 1016.95 1016.88
1018.45 1017.86 1017.21 1016.54 1015.89 1015.28 1014.74 1014.27 1013.89 1013.59 1013.37 1013.21 1013.11 1013.06 1013.04 1013.06 1013.11 1013.20 1013.33 1013.49 1013.68 1013.90 1014.13 1014.36 1014.57 1014.76 1014.91 1015.02 1015.10 1015.14 1015.17 1015.19 1015.23 1015.29 1015.37 1015.49 1015.64 1015.80 1015.97 1016.12 1016.24 1016.33 1016.37 1016.36
1019.01 1018.48 1017.90 1017.30 1016.70 1016.13 1015.58 1015.08 1014.63 1014.22 1013.85 1013.52 1013.23 1012.98 1012.78 1012.63 1012.53 1012.50 1012.52 1012.62 1012.77 1012.96 1013.19 1013.44 1013.68 1013.91 1014.11 1014.27 1014.40 1014.50 1014.58 1014.64 1014.70 1014.78 1014.86 1014.96 1015.08 1015.20 1015.33 1015.45 1015.55 1015.63 1015.69 1015.73
1019.62 1019.15 1018.65 1018.11 1017.57 1017.03 1016.50 1015.97 1015.45 1014.94 1014.43 1013.94 1013.47 1013.03 1012.63 1012.29 1012.02 1011.84 1011.73 1011.72 1011.79 1011.93 1012.13 1012.37 1012.63 1012.89 1013.14 1013.37 1013.57 1013.74 1013.89 1014.03 1014.14 1014.26 1014.36 1014.47 1014.57 1014.66 1014.75 1014.82 1014.89 1014.95 1015.02 1015.08
1020.13 1019.73 1019.29 1018.82 1018.34 1017.85 1017.33 1016.80 1016.24 1015.66 1015.05 1014.43 1013.80 1013.19 1012.61 1012.09 1011.64 1011.28 1011.02 1010.87 1010.83 1010.88 1011.01 1011.21 1011.46 1011.73 1012.02 1012.31 1012.59 1012.85 1013.10 1013.32 1013.53 1013.71 1013.86 1014.00 1014.10 1014.19 1014.25 1014.29 1014.33 1014.36 1014.40 1014.46
1020.45 1020.10 1019.73 1019.34 1018.92 1018.49 1018.02 1017.51 1016.95 1016.34 1015.67 1014.96 1014.22 1013.47 1012.74 1012.05 1011.43 1010.90 1010.47 1010.16 1009.97 1009.89 1009.92 1010.04 1010.24 1010.50 1010.80 1011.13 1011.47 1011.82 1012.17 1012.50 1012.80 1013.07 1013.31 1013.50 1013.64 1013.74 1013.80 1013.83 1013.84 1013.85 1013.86 1013.90
1020.54 1020.25 1019.94 1019.63 1019.30 1018.94 1018.54 1018.08 1017.55 1016.95 1016.27 1015.52 1014.71 1013.88 1013.03 1012.21 1011.45 1010.75 1010.16 1009.68 1009.32 1009.09 1008.98 1008.98 1009.09 1009.28 1009.56 1009.89 1010.27 1010.68 1011.10 1011.52 1011.93 1012.30 1012.62 1012.89 1013.10 1013.24 1013.33 1013.36 1013.37 1013.35 1013.34 1013.36
1020.46 1020.23 1019.99 1019.76 1019.51 1019.24 1018.91 1018.53 1018.06 1017.51 1016.86 1016.12 1015.30 1014.42 1013.52 1012.61 1011.72 1010.90 1010.15 1009.50 1008.98 1008.57 1008.29 1008.14 1008.11 1008.20 1008.39 1008.68 1009.04 1009.46 1009.93 1010.41 1010.88 1011.34 1011.75 1012.10 1012.38 1012.58 1012.72 1012.78 1012.80 1012.79 1012.77 1012.76
1020.32 1020.14 1019.97 1019.81 1019.64 1019.44 1019.20 1018.90 1018.51 1018.03 1017.44 1016.75 1015.96 1015.09 1014.17 1013.21 1012.26 1011.33 1010.46 1009.66 1008.97 1008.39 1007.93 1007.60 1007.41 1007.34 1007.40 1007.59 1007.88 1008.26 1008.70 1009.19 1009.70 1010.20 1010.67 1011.08 1011.43 1011.70 1011.89 1012.01 1012.07 1012.08 1012.07 1012.06
1020.20 1020.06 1019.94 1019.84 1019.73 1019.61 1019.45 1019.22 1018.91 1018.51 1018.00 1017.38 1016.65 1015.83 1014.93 1013.98 1012.99 1012.01 1011.05 1010.14 1009.30 1008.56 1007.92 1007.41 1007.03 1006.79 1006.68 1006.72 1006.88 1007.15 1007.52 1007.95 1008.43 1008.93 1009.42 1009.86 1010.26 1010.58 1010.83 1011.01 1011.12 1011.17 1011.20 1011.20
1020.15 1020.05 1019.96 1019.89 1019.83 1019.75 1019.64 1019.47 1019.24 1018.91 1018.49 1017.95 1017.31 1016.56 1015.72 1014.80 1013.84 1012.84 1011.84 1010.86 1009.92 1009.05 1008.26 1007.58 1007.01 1006.58 1006.29 1006.14 1006.13 1006.25 1006.48 1006.80 1007.20 1007.63 1008.08 1008.52 1008.93 1009.28 1009.57 1009.80 1009.97 1010.08 1010.16 1010.21
1020.17 1020.08 1020.00 1019.94 1019.89 1019.83 1019.75 1019.62 1019.44 1019.18 1018.83 1018.39 1017.83 1017.18 1016.42 1015.58 1014.67 1013.71 1012.72 1011.71 1010.72 1009.76 1008.86 1008.05 1007.33 1006.72 1006.24 1005.91 1005.71 1005.64 1005.70 1005.87 1006.13 1006.45 1006.82 1007.20 1007.57 1007.92 1008.23 1008.50 1008.72 1008.89 1009.03 1009.14
1020.19 1020.10 1020.01 1019.94 1019.87 1019.81 1019.73 1019.62 1019.47 1019.26 1018.98 1018.61 1018.15 1017.59 1016.94 1016.20 1015.38 1014.49 1013.55 1012.58 1011.58 1010.60 1009.65 1008.74 1007.91 1007.17 1006.54 1006.03 1005.65 1005.40 1005.27 1005.26 1005.36 1005.53 1005.77 1006.06 1006.36 1006.67 1006.97 1007.24 1007.49 1007.71 1007.91 1008.08
1020.14 1020.02 1019.91 1019.81 1019.71 1019.62 1019.52 1019.41 1019.28 1019.10 1018.87 1018.57 1018.20 1017.74 1017.20 1016.57 1015.86 1015.08 1014.23 1013.33 1012.39 1011.43 1010.48 1009.56 1008.67 1007.86 1007.12 1006.48 1005.95 1005.54 1005.24 1005.06 1004.98 1005.00 1005.09 1005.25 1005.46 1005.69 1005.94 1006.20 1006.45 1006.70 1006.93 1007.15
1019.94 1019.79 1019.64 1019.50 1019.36 1019.24 1019.12 1019.00 1018.86 1018.70 1018.51 1018.27 1017.97 1017.61 1017.17 1016.65 1016.06 1015.39 1014.66 1013.87 1013.02 1012.15 1011.26 1010.37 1009.50 1008.66 1007.88 1007.18 1006.56 1006.03 1005.60 1005.27 1005.04 1004.90 1004.85 1004.88 1004.97 1005.10 1005.28 1005.49 1005.72 1005.96 1006.20 1006.45
Thickness
5717 5722 5722 5716 5710 5704 5696 5686 5676 5681 5685 5689 5689 5686 5684 5684 5682 5679 5676 5674 5672 5667 5664 5661 5659 5656 5653 5650 5647 5644 5640 5637 5635 5633 5632 5631 5629 5628 5627 5627 5626 5626 5626 5628
5721 5726 5724 5718 5716 5710 5705 5703 5696 5695 5695 5706 5702 5695 5690 5688 5686 5683 5681 5679 5677 5674 5670 5666 5663 5659 5655 5652 5649 5645 5641 5638 5636 5634 5632 5630 5628 5626 5624 5623 5622 5622 5621 5622
5707 5721 5719 5708 5720 5715 5714 5715 5709 5698 5703 5708 5701 5698 5695 5693 5691 5688 5686 5684 5682 5678 5674 5671 5667 5663 5658 5655 5651 5647 5643 5640 5637 5634 5632 5629 5628 5625 5623 5621 5619 5618 5617 5618
5704 5711 5703 5720 5740 5736 5726 5726 5723 5721 5718 5713 5711 5709 5706 5703 5698 5694 5692 5689 5686 5682 5679 5676 5672 5667 5663 5658 5654 5649 5645 5642 5638 5635 5632 5630 5627 5625 5622 5620 5618 5616 5614 5614
5697 5700 5707 5728 5742 5740 5729 5726 5733 5726 5723 5720 5718 5711 5706 5710 5706 5701 5698 5694 5691 5688 5684 5680 5676 5671 5665 5660 5656 5652 5648 5644 5641 5637 5634 5631 5628 5625 5623 5620 5618 5616 5614 5613
5700 5703 5703 5725 5747 5750 5736 5722 5739 5734 5727 5721 5714 5696 5702 5714 5712 5707 5704 5700 5696 5692 5688 5683 5679 5674 5668 5662 5658 5655 5652 5648 5645 5641 5637 5633 5630 5628 5625 5622 5619 5617 5614 5612
5699 5699 5708 5736 5749 5745 5716 5722 5746 5741 5735 5726 5718 5717 5720 5720 5716 5711 5708 5704 5701 5696 5690 5686 5682 5677 5670 5665 5662 5660 5657 5653 5648 5644 5641 5637 5634 5630 5627 5624 5621 5617 5614 5612
5694 5696 5709 5747 5744 5732 5733 5747 5751 5747 5741 5735 5731 5729 5725 5722 5718 5713 5709 5707 5703 5697 5692 5689 5685 5680 5673 5669 5668 5665 5660 5656 5652 5648 5645 5642 5637 5633 5629 5626 5622 5618 5615 5612
5713 5720 5742 5750 5750 5755 5754 5751 5755 5750 5747 5741 5734 5730 5727 5723 5719 5716 5712 5709 5705 5700 5695 5692 5688 5684 5678 5675 5673 5668 5663 5659 5655 5652 5648 5644 5640 5636 5631 5627 5624 5620 5617 5614
5729 5738 5749 5752 5753 5757 5757 5757 5759 5756 5751 5744 5738 5734 5729 5725 5721 5717 5714 5711 5707 5702 5697 5694 5691 5688 5685 5682 5678 5672 5667 5663 5659 5655 5651 5647 5643 5639 5635 5630 5627 5624 5620 5617
5730 5739 5747 5754 5754 5756 5757 5758 5758 5757 5753 5747 5741 5736 5731 5727 5723 5720 5717 5714 5710 5705 5701 5699 5696 5692 5690 5686 5681 5675 5671 5667 5663 5659 5655 5651 5647 5643 5639 5635 5631 5628 5625 5622
5719 5732 5732 5740 5751 5755 5753 5753 5754 5753 5750 5747 5743 5738 5733 5729 5726 5722 5719 5715 5711 5707 5704 5702 5699 5696 5693 5690 5685 5679 5674 5670 5666 5663 5658 5654 5650 5646 5644 5641 5638 5635 5632 5628
5717 5728 5733 5738 5744 5746 5746 5748 5750 5749 5748 5744 5742 5739 5735 5730 5727 5724 5721 5717 5713 5711 5708 5705 5702 5699 5697 5693 5689 5684 5679 5675 5671 5667 5663 5658 5654 5650 5647 5645 5643 5640 5637 5635
5714 5721 5723 5724 5726 5732 5736 5740 5743 5743 5743 5742 5740 5737 5734 5731 5727 5723 5721 5720 5717 5714 5710 5707 5704 5701 5700 5696 5691 5687 5683 5680 5675 5671 5667 5664 5660 5656 5653 5649 5646 5645 5643 5641
5702 5705 5705 5710 5716 5721 5725 5728 5728 5728 5730 5732 5733 5732 5731 5728 5726 5725 5724 5722 5718 5714 5711 5708 5705 5704 5702 5698 5693 5689 5685 5681 5678 5674 5671 5667 5664 5661 5657 5654 5651 5649 5646 5644
5688 5692 5695 5698 5701 5704 5708 5711 5711 5714 5718 5721 5723 5725 5727 5728 5728 5727 5724 5721 5716 5712 5711 5709 5707 5706 5704 5699 5694 5690 5686 5685 5680 5676 5673 5669 5667 5664 5661 5658 5655 5652 5650 5648
5675 5676 5678 5679 5682 5686 5689 5692 5695 5699 5704 5709 5713 5718 5721 5722 5721 5720 5720 5720 5719 5718 5715 5712 5709 5708 5704 5700 5696 5691 5687 5684 5682 5677 5674 5671 5669 5666 5664 5661 5659 5657 5656 5655
5661 5661 5661 5662 5664 5668 5671 5676 5680 5684 5689 5695 5702 5707 5710 5711 5713 5715 5717 5717 5716 5715 5714 5712 5710 5707 5704 5700 5696 5692 5688 5684 5680 5677 5674 5672 5670 5668 5666 5664 5662 5660 5659 5658
5646 5647 5648 5649 5651 5652 5654 5658 5662 5667 5672 5679 5685 5690 5695 5700 5705 5709 5711 5710 5709 5709 5711 5711 5709 5706 5703 5700 5696 5691 5687 5683 5680 5677 5675 5673 5670 5668 5667 5665 5664 5662 5661 5659
5629 5631 5631 5632 5634 5636 5637 5640 5644 5649 5653 5659 5665 5671 5676 5682 5688 5694 5699 5702 5707 5711 5712 5710 5707 5704 5702 5699 5695 5690 5686 5683 5679 5676 5673 5671 5669 5668 5667 5666 5665 5663 5662 5660
5611 5612 5614 5615 5616 5617 5618 5620 5624 5629 5633 5637 5641 5646 5652 5660 5668 5674 5680 5686 5696 5699 5701 5703 5702 5701 5699 5696 5692 5688 5684 5681 5678 5675 5672 5670 5668 5667 5666 5665 5665 5664 5663 5662
5594 5595 5596 5597 5598 5599 5600 5601 5604 5608 5612 5615 5619 5623 5629 5637 5645 5652 5659 5665 5674 5680 5685 5690 5693 5695 5695 5692 5689 5685 5682 5680 5677 5674 5671 5669 5667 5665 5665 5664 5663 5663 5663 5662
5577 5578 5579 5580 5580 5580 5582 5584 5585 5588 5590 5593 5595 5599 5603 5609 5615 5622 5632 5642 5649 5659 5667 5674 5680 5684 5685 5684 5682 5681 5679 5676 5674 5672 5669 5667 5666 5664 5663 5663 5662 5662 5661 5661
5564 5564 5564 5564 5564 5564 5564 5565 5566 5567 5568 5570 5572 5575 5579 5585 5592 5596 5602 5613 5624 5635 5645 5654 5661 5667 5671 5673 5673 5673 5672 5671 5669 5667 5666 5664 5662 5661 5660 5659 5659 5659 5659 5659
5550 5549 5548 5547 5546 5545 5545 5546 5547 5547 5548 5549 5550 5553 5556 5559 5563 5570 5577 5586 5596 5607 5618 5629 5638 5646 5652 5656 5659 5661 5662 5663 5662 5660 5659 5657 5656 5655 5655 5655 5655 5655 5654 5655
5536 5534 5533 5531 5529 5527 5526 5526 5525 5525 5526 5527 5528 5530 5532 5535 5539 5545 5551 5558 5566 5575 5585 5596 5607 5617 5625 5633 5638 5643 5647 5649 5650 5650 5650 5649 5649 5648 5648 5648 5649 5649 5649 5650
5522 5519 5516 5514 5512 5511 5508 5506 5504 5503 5503 5503 5504 5506 5508 5510 5514 5518 5524 5530 5537 5544 5552 5561 5572 5582 5592 5602 5611 5618 5624 5629 5632 5635 5637 5638 5639 5640 5640 5641 5641 5642 5642 5642